FW0675 Weather Reports


time (UTC)temp
C
wind
direction
speed
KPH
gust
KPH
rain 1hr
cm
rain 24hr
cm
rain mn
cm
humidity
%
barometer
mb
20260505101943 10 313 0.0 0.0 0.00 0.00 0.00 90 1014.7
20260505101444 10 313 0.0 0.0 0.00 0.00 0.00 90 1014.7
20260505095945 10 313 0.0 0.0 0.00 0.00 0.00 90 1014.7
20260505095445 10 313 0.0 0.0 0.00 0.00 0.00 90 1014.8
20260505094942 10 313 0.0 0.0 0.00 0.00 0.00 90 1014.7
20260505094442 10 313 0.0 0.0 0.00 0.00 0.00 90 1014.7
20260505093440 10 313 0.0 0.0 0.00 0.00 0.00 89 1014.7
20260505092940 10 313 0.0 0.0 0.00 0.00 0.00 89 1014.6
20260505092440 10 313 0.0 0.0 0.00 0.00 0.00 89 1014.6
20260505091442 10 313 0.0 0.0 0.00 0.00 0.00 89 1014.5
20260505090941 10 313 0.0 0.0 0.00 0.00 0.00 89 1014.5
20260505090442 10 313 0.0 0.0 0.00 0.00 0.00 88 1014.4
20260505085940 10 313 0.0 0.0 0.00 0.00 0.00 88 1014.4
20260505085440 10 313 0.0 0.0 0.00 0.00 0.00 88 1014.4
20260505084439 11 313 0.0 0.0 0.00 0.00 0.00 87 1014.1
20260505083939 11 313 0.0 0.0 0.00 0.00 0.00 87 1014.1
20260505083438 11 312 0.0 0.0 0.00 0.00 0.00 87 1014.1
20260505082939 11 313 0.0 0.0 0.00 0.00 0.00 87 1014.0
20260505082437 11 313 0.0 0.0 0.00 0.00 0.00 87 1014.0
20260505081938 11 311 0.0 0.0 0.00 0.00 0.00 87 1013.9
20260505081437 11 311 0.0 0.0 0.00 0.00 0.00 87 1014.0
20260505080939 11 310 0.0 0.0 0.00 0.00 0.00 87 1013.9
20260505080438 11 307 0.0 0.0 0.00 0.00 0.00 87 1013.9
20260505075939 11 305 0.0 0.0 0.00 0.00 0.00 87 1013.8
20260505075437 11 310 0.0 0.0 0.00 0.00 0.00 87 1013.9
20260505074435 11 309 0.0 0.0 0.00 0.00 0.00 87 1013.7
20260505073437 11 311 0.0 0.0 0.00 0.00 0.00 86 1013.6
20260505072936 11 302 0.0 0.0 0.00 0.00 0.00 86 1013.7
20260505072436 11 308 0.0 0.0 0.00 0.00 0.00 86 1013.5
20260505071936 11 303 0.0 0.0 0.00 0.00 0.00 86 1013.5
20260505071436 11 313 0.0 0.0 0.00 0.00 0.00 86 1013.3
20260505070935 11 306 0.0 0.0 0.00 0.00 0.00 85 1013.3
20260505070434 11 294 0.0 0.0 0.00 0.00 0.00 85 1013.3
20260505065934 11 309 0.0 0.0 0.00 0.00 0.00 85 1013.3
20260505065431 12 310 0.0 0.0 0.00 0.00 0.00 85 1013.1
20260505064933 12 315 0.0 0.0 0.00 0.00 0.00 85 1013.2
20260505063431 12 302 0.0 0.0 0.00 0.00 0.00 84 1013.1
20260505062932 12 300 0.0 0.0 0.00 0.00 0.00 84 1013.1
20260505061933 12 292 0.0 0.0 0.00 0.00 0.00 83 1013.0
20260505061432 12 115 0.0 0.0 0.00 0.00 0.00 83 1012.9
20260505060930 12 115 0.0 0.0 0.00 0.00 0.00 83 1013.0
20260505060431 13 115 0.0 0.0 0.00 0.00 0.00 83 1013.0
20260505055930 13 115 0.0 0.0 0.00 0.00 0.00 82 1012.9
20260505055430 13 116 0.0 0.0 0.00 0.00 0.00 82 1012.8
20260505054929 13 118 0.0 0.0 0.00 0.00 0.00 82 1012.8
20260505053929 13 272 0.0 0.0 0.00 0.00 0.00 82 1012.8
20260505052930 13 294 0.0 0.0 0.00 0.00 0.00 81 1012.8
20260505052428 13 280 0.0 0.0 0.00 0.00 0.00 81 1012.7
20260505051927 13 294 0.0 0.0 0.00 0.00 0.00 81 1012.7
20260505051427 14 259 0.0 0.0 0.00 0.00 0.00 81 1012.6
20260505050927 14 119 0.0 0.0 0.00 0.00 0.00 81 1012.7
20260505050429 14 119 0.0 0.0 0.00 0.00 0.00 81 1012.6
20260505041426 16 311 0.0 0.0 0.00 0.00 0.00 78 1011.9
20260505040925 16 321 0.0 0.0 0.00 0.00 0.00 78 1011.9
20260505040426 16 321 0.0 0.0 0.00 0.00 0.00 78 1011.8
20260505035925 16 293 0.0 0.0 0.00 0.00 0.00 78 1011.7
20260505035425 16 15 0.0 0.0 0.00 0.00 0.00 77 1011.7
20260505034925 16 15 0.0 0.0 0.00 0.00 0.00 76 1011.6
20260505034424 16 15 0.0 0.0 0.00 0.00 0.00 76 1011.5
20260505033924 16 102 0.0 0.0 0.00 0.00 0.00 76 1011.4
20260505033424 17 102 0.0 0.0 0.00 0.00 0.00 75 1011.4
20260505032923 17 332 0.0 0.0 0.00 0.00 0.00 75 1011.2
20260505031923 17 332 0.0 0.0 0.00 0.00 0.00 74 1011.2
20260505031423 17 351 0.0 0.0 0.00 0.00 0.00 74 1011.0
20260505030924 18 351 0.0 0.0 0.00 0.00 0.00 73 1011.0
20260505025923 18 300 0.0 0.0 0.00 0.00 0.00 73 1010.9
20260505025422 18 300 0.0 0.0 0.00 0.00 0.00 73 1010.9
20260505024921 18 300 0.0 0.0 0.00 0.00 0.00 72 1010.8
20260505023922 19 300 0.0 0.0 0.00 0.00 0.00 72 1010.8
20260505023420 19 300 0.0 0.0 0.00 0.00 0.00 71 1010.7
20260505022919 19 300 0.0 0.0 0.00 0.00 0.00 71 1010.7
20260505022421 20 300 0.0 0.0 0.00 0.00 0.00 70 1010.6
20260505021419 20 300 0.0 0.0 0.00 0.00 0.00 69 1010.6
20260505020920 20 300 0.0 0.0 0.00 0.00 0.00 69 1010.5
20260505020419 20 300 0.0 0.0 0.00 0.00 0.00 68 1010.5
20260505015919 20 270 0.0 0.0 0.00 0.00 0.00 70 1010.5
20260505015420 20 351 0.0 0.0 0.00 0.00 0.00 72 1010.5
20260505014920 21 351 0.0 0.0 0.00 0.00 0.00 72 1010.5
20260505014419 21 351 0.0 0.0 0.00 0.00 0.00 73 1010.5
20260505013919 21 351 0.0 0.0 0.00 0.00 0.00 75 1010.5
20260505013419 21 218 0.0 0.0 0.00 0.00 0.00 75 1010.4
20260505012420 21 277 0.0 0.0 0.00 0.00 0.00 74 1010.4
20260505011921 21 277 0.0 0.0 0.00 0.00 0.00 73 1010.4
20260505011418 21 148 0.0 0.0 0.00 0.00 0.00 74 1010.4
20260505010418 21 257 0.0 0.0 0.00 0.00 0.00 74 1010.5
20260505005918 21 257 0.0 0.0 0.00 0.00 0.00 74 1010.5
20260505005415 21 257 0.0 0.0 0.00 0.00 0.00 74 1010.6
20260505004916 21 257 0.0 0.0 0.00 0.00 0.00 74 1010.5
20260505004413 21 257 0.0 0.0 0.00 0.00 0.00 73 1010.6
20260505003913 21 246 0.0 0.0 0.00 0.00 0.00 73 1010.5
20260505002915 22 294 0.0 0.0 0.00 0.00 0.00 73 1010.6
20260505001913 22 241 0.0 0.0 0.00 0.00 0.00 72 1010.5
20260505001413 22 255 0.0 0.0 0.00 0.00 0.00 71 1010.5
20260505000913 22 244 0.0 0.0 0.00 0.00 0.00 71 1010.6
20260505000414 22 244 0.0 0.0 0.00 0.00 0.00 70 1010.7
20260504235914 22 236 0.0 0.0 0.00 0.00 0.00 70 1010.7
20260504235412 22 308 0.0 0.0 0.00 0.00 0.00 69 1010.6
20260504234911 22 239 0.0 0.0 0.00 0.00 0.00 69 1010.8
20260504234410 22 235 0.0 0.0 0.00 0.00 0.00 69 1010.8
20260504233910 23 105 0.0 0.0 0.00 0.00 0.00 69 1010.7
20260504233410 23 342 0.0 0.0 0.00 0.00 0.00 68 1010.8
20260504232908 23 219 0.0 0.0 0.00 0.00 0.00 68 1010.7
20260504232410 23 3 0.0 0.0 0.00 0.00 0.00 66 1010.8
20260504231907 23 113 0.0 0.0 0.00 0.00 0.00 66 1010.8
20260504231407 24 210 0.0 0.0 0.00 0.00 0.00 65 1010.8
20260504230908 24 220 0.0 0.0 0.00 0.00 0.00 69 1010.9
20260504230408 24 224 0.0 0.0 0.00 0.00 0.00 66 1010.9
20260504225906 24 238 0.0 0.0 0.00 0.00 0.00 65 1011.0
20260504225408 24 240 0.0 0.0 0.00 0.00 0.00 68 1011.0
20260504224405 24 79 0.0 0.0 0.00 0.00 0.00 68 1011.2
20260504223905 24 218 0.0 0.0 0.00 0.00 0.00 69 1011.3
20260504223406 23 127 0.0 0.0 0.00 0.00 0.00 67 1011.3
20260504222405 23 104 0.0 0.0 0.00 0.00 0.00 66 1011.5
20260504221904 23 172 0.0 0.0 0.00 0.00 0.00 68 1011.4
20260504221405 23 107 0.0 0.0 0.00 0.00 0.00 66 1011.5
20260504220904 23 117 0.0 0.0 0.00 0.00 0.00 69 1011.5
20260504220404 23 106 0.0 0.0 0.00 0.00 0.00 65 1011.5
20260504215406 23 216 0.0 0.0 0.00 0.00 0.00 66 1011.7
20260504214407 23 225 0.0 0.0 0.00 0.00 0.00 68 1011.8
20260504213905 23 214 0.0 0.0 0.00 0.00 0.00 68 1011.9
20260504213406 22 319 0.0 0.0 0.00 0.00 0.00 70 1011.9
20260504212907 22 130 0.0 0.0 0.00 0.00 0.00 68 1012.0
20260504212405 22 247 0.0 0.0 0.00 0.00 0.00 71 1012.0
20260504211905 21 307 0.0 0.0 0.00 0.00 0.00 68 1012.1
20260504211405 21 110 0.0 0.0 0.00 0.00 0.00 68 1012.2
20260504210905 21 230 0.0 0.0 0.00 0.00 0.00 69 1012.2
20260504210405 21 124 0.0 0.0 0.00 0.00 0.00 70 1012.4
20260504205404 21 151 0.0 0.0 0.00 0.00 0.00 71 1012.5
20260504204405 21 118 0.0 0.0 0.00 0.00 0.00 71 1012.6
20260504203906 20 124 0.0 0.0 0.00 0.00 0.00 70 1012.6
20260504203406 20 100 0.0 0.0 0.00 0.00 0.00 73 1012.7
20260504202905 20 214 0.0 0.0 0.00 0.00 0.00 73 1012.7
20260504201406 20 248 0.0 0.0 0.00 0.00 0.00 71 1012.9
20260504200906 20 99 0.0 0.0 0.00 0.00 0.00 73 1012.9
20260504200404 20 115 0.0 0.0 0.00 0.00 0.00 72 1013.0
20260504195904 20 125 0.0 0.0 0.00 0.00 0.00 70 1013.1
20260504195404 20 104 0.0 0.0 0.00 0.00 0.00 73 1013.1
20260504194905 20 28 0.0 0.0 0.00 0.00 0.00 69 1013.1
20260504194404 20 196 0.0 0.0 0.00 0.00 0.00 71 1013.1
20260504193904 20 150 0.0 0.0 0.00 0.00 0.00 69 1013.1
20260504193406 20 274 0.0 0.0 0.00 0.00 0.00 71 1013.2
20260504192906 20 121 0.0 0.0 0.00 0.00 0.00 71 1013.2
20260504192406 20 13 0.0 0.0 0.00 0.00 0.00 69 1013.4
20260504191904 20 141 0.0 0.0 0.00 0.00 0.00 73 1013.4
20260504191404 19 344 0.0 0.0 0.00 0.00 0.00 74 1013.4
20260504190905 19 103 0.0 0.0 0.00 0.00 0.00 73 1013.4
20260504190403 20 147 0.0 0.0 0.00 0.00 0.00 73 1013.4
20260504185903 19 210 0.0 0.0 0.00 0.00 0.00 73 1013.5
20260504185402 19 211 0.0 0.0 0.00 0.00 0.00 73 1013.4
20260504184900 18 208 0.0 0.0 0.00 0.00 0.00 74 1013.4
20260504183902 18 320 0.0 0.0 0.00 0.00 0.00 74 1013.5
20260504183358 18 101 0.0 0.0 0.00 0.00 0.00 76 1013.5
20260504182400 17 131 0.0 0.0 0.00 0.00 0.00 76 1013.4
20260504181859 17 68 0.0 0.0 0.00 0.00 0.00 76 1013.5
20260504181358 17 319 0.0 0.0 0.00 0.00 0.00 77 1013.6
20260504180856 17 122 0.0 0.0 0.00 0.00 0.00 78 1013.6
20260504180357 16 121 0.0 0.0 0.00 0.00 0.00 79 1013.6
20260504175856 16 305 0.0 0.0 0.00 0.00 0.00 79 1013.5
20260504175356 16 131 0.0 0.0 0.00 0.00 0.00 78 1013.7
20260504174856 16 113 0.0 0.0 0.00 0.00 0.00 78 1013.7
20260504174354 16 23 0.0 0.0 0.00 0.00 0.00 78 1013.7
20260504173856 16 131 0.0 0.0 0.00 0.00 0.00 78 1013.8
20260504173354 16 240 0.0 0.0 0.00 0.00 0.00 78 1013.8
20260504172854 16 141 0.0 0.0 0.00 0.00 0.00 78 1013.6
20260504172355 16 338 0.0 0.0 0.00 0.00 0.00 79 1013.6
20260504171855 16 277 0.0 0.0 0.00 0.00 0.00 78 1013.6
20260504170856 15 221 0.0 0.0 0.00 0.00 0.00 81 1013.6
20260504170356 15 225 0.0 0.0 0.00 0.00 0.00 81 1013.6
20260504150848 12 288 0.0 0.0 0.00 0.00 0.00 87 1013.1
20260504150340 11 287 0.0 0.0 0.00 0.00 0.00 87 1013.1
20260504140838 11 270 0.0 0.0 0.00 0.00 0.00 87 1012.6
20260504140338 11 270 0.0 0.0 0.00 0.00 0.00 87 1012.7
20260504110331 16 262 0.0 0.0 0.00 0.00 0.00 73 1009.8